This is the latest recevied weather packets stored in our database for station/object NW5W-12. If no packets are shown the sender has not sent any weather packets the latest 10 day(s).
| Time | Temp. | Humidity | Pressure | Rain* | Wind** | Luminosity | Snow |
|---|---|---|---|---|---|---|---|
| 1777570431 | 11.11° C | 47% | 1019.6 hPa | 0 mm | - | - | - |
| 1777570131 | 10.56° C | 46% | 1019.6 hPa | 0 mm | - | - | - |
| 1777569831 | 10.56° C | 46% | 1019.6 hPa | 0 mm | - | - | - |
| 1777569531 | 10° C | 49% | 1019.6 hPa | 0 mm | - | - | - |
| 1777569231 | 10° C | 45% | 1019.6 hPa | 0 mm | - | - | - |
| 1777568931 | 10° C | 46% | 1019.6 hPa | 0 mm | - | - | - |
| 1777568631 | 10° C | 48% | 1019.7 hPa | 0 mm | - | - | - |
| 1777568331 | 10° C | 46% | 1019.7 hPa | 0 mm | - | - | - |
| 1777568031 | 10° C | 47% | 1019.7 hPa | 0 mm | - | - | - |
| 1777567731 | 10° C | 45% | 1019.7 hPa | 0 mm | - | - | - |
| 1777567431 | 10° C | 47% | 1019.7 hPa | 0 mm | - | - | - |
| 1777567131 | 9.44° C | 47% | 1019.7 hPa | 0 mm | - | - | - |
| 1777566831 | 9.44° C | 43% | 1019.7 hPa | 0 mm | - | - | - |
| 1777566531 | 9.44° C | 47% | 1019.7 hPa | 0 mm | - | - | - |
| 1777566231 | 8.33° C | 52% | 1019.7 hPa | 0 mm | - | - | - |
| 1777565931 | 8.33° C | 49% | 1019.7 hPa | 0 mm | - | - | - |
| 1777565630 | 8.89° C | 49% | 1019.7 hPa | 0 mm | - | - | - |
| 1777565331 | 8.33° C | 52% | 1019.7 hPa | 0 mm | - | - | - |
| 1777565031 | 8.33° C | 51% | 1019.6 hPa | 0 mm | - | - | - |
| 1777564731 | 7.78° C | 53% | 1019.6 hPa | 0 mm | - | - | - |
| 1777564431 | 7.78° C | 51% | 1019.6 hPa | 0 mm | - | - | - |
| 1777564131 | 7.78° C | 51% | 1019.5 hPa | 0 mm | - | - | - |
| 1777563831 | 7.78° C | 52% | 1019.5 hPa | 0 mm | - | - | - |
| 1777563531 | 7.78° C | 52% | 1019.5 hPa | 0 mm | - | - | - |
| 1777563230 | 7.78° C | 49% | 1019.5 hPa | 0 mm | - | - | - |
* Rain since midnight (hover to see other rain measurements)
** Current wind speed in m/s (hover to see current wind gust speed)